Date String (YYYY-MM-DD hh:mm:ss) UTC,Instrument flags,Ambient pressure (hPa),Sample flow (lpm),Bypass flow (lpm),Sample temperature (°C),Ambient temperature (°C),ASC tube jacket temperature (°C),LED temperature (°C),Box temperature (°C),Sample RH (%),Span deviation,Mass concentration (μg/m³),Mass concentration (μg/m³),Mass concentration (μg/m³)
DateTimeUTC,F1_M11,P_M11,Q1_M11,Q2_M11,T1_M11,T2_M11,T3_M11,T4_M11,T5_M11,U1_M11,ZSPAN_M11,X0_M11,X2_M11,X1_M11
2022-05-04 00:00:00,,0818.0,4.99,0.00,26.4,25.6,00.0,35.3,28.3,21.3,-001.6,0011.48,0008.00,0007.62
2022-05-04 00:01:00,,0817.9,5.01,0.00,26.4,25.6,00.0,35.3,28.2,21.6,-001.6,0011.54,0007.93,0007.57
2022-05-04 00:02:00,,0817.8,5.00,0.00,26.4,25.6,00.0,35.3,28.3,21.8,-001.5,0011.67,0007.84,0007.51
2022-05-04 00:03:00,,0817.6,4.99,0.00,26.4,25.6,00.0,35.3,28.3,21.7,-001.7,0011.48,0007.72,0007.41
2022-05-04 00:04:00,,0817.5,5.01,0.00,26.4,25.6,00.0,35.3,28.3,21.5,-002.0,0011.40,0007.65,0007.33
2022-05-04 00:05:00,,0817.5,4.99,0.00,26.4,25.6,00.0,35.3,28.3,21.5,-001.8,0011.20,0007.54,0007.26
2022-05-04 00:06:00,,0817.6,5.01,0.00,26.4,25.6,00.0,35.3,28.3,21.6,-001.7,0011.19,0007.45,0007.20
2022-05-04 00:07:00,,0817.7,4.99,0.00,26.5,25.6,00.0,35.3,28.3,21.4,-001.9,0012.30,0007.39,0007.16
2022-05-04 00:08:00,,0817.9,5.01,0.00,26.5,25.6,00.0,35.3,28.3,21.4,-001.9,0012.03,0007.40,0007.15
2022-05-04 00:09:00,,0818.0,5.00,0.00,26.5,25.6,00.0,35.3,28.3,21.5,-002.0,0011.99,0007.41,0007.15
2022-05-04 00:10:00,,0818.1,5.00,0.00,26.5,25.7,00.0,35.3,28.3,21.5,-002.2,0011.94,0007.41,0007.16
2022-05-04 00:11:00,,0818.1,5.01,0.00,26.5,25.7,00.0,35.3,28.4,21.5,-002.1,0011.92,0007.41,0007.17
2022-05-04 00:12:00,,0818.0,4.99,0.00,26.5,25.7,00.0,35.4,28.4,21.3,-002.3,0011.99,0007.46,0007.21
2022-05-04 00:13:00,,0818.0,5.00,0.00,26.5,25.7,00.0,35.4,28.3,21.4,-002.4,0011.65,0007.51,0007.24
2022-05-04 00:14:00,,0818.0,5.01,0.00,26.5,25.7,00.0,35.4,28.4,21.5,-002.3,0011.97,0007.57,0007.29
2022-05-04 00:15:00,,0817.8,5.00,0.00,26.5,25.7,00.0,35.4,28.4,21.6,-002.2,0012.70,0007.62,0007.34
2022-05-04 00:16:00,,0817.7,5.00,0.00,26.5,25.7,00.0,35.4,28.4,21.4,-002.3,0012.95,0007.66,0007.36
2022-05-04 00:17:00,,0817.6,4.99,0.00,26.5,25.7,00.0,35.4,28.4,21.3,-002.3,0013.06,0007.72,0007.40
2022-05-04 00:18:00,,0817.6,5.01,0.00,26.5,25.7,00.0,35.4,28.4,21.4,-002.2,0011.86,0007.80,0007.44
2022-05-04 00:19:00,,0817.6,5.00,0.00,26.5,25.7,00.0,35.4,28.4,21.6,-002.4,0011.92,0007.86,0007.48
2022-05-04 00:20:00,,0817.7,4.99,0.00,26.6,25.7,00.0,35.4,28.4,21.8,-002.4,0012.29,0007.89,0007.51
2022-05-04 00:21:00,,0817.7,4.99,0.00,26.6,25.7,00.0,35.4,28.4,22.0,-002.4,0013.61,0007.92,0007.54
2022-05-04 00:22:00,,0817.8,5.01,0.00,26.6,25.7,00.0,35.4,28.4,22.0,-002.4,0013.89,0007.99,0007.58
2022-05-04 00:23:00,,0817.8,4.99,0.00,26.6,25.7,00.0,35.4,28.4,22.0,-002.2,0014.30,0008.03,0007.60
2022-05-04 00:24:00,,0817.8,5.01,0.00,26.6,25.7,00.0,35.4,28.4,22.3,-002.1,0014.66,0008.03,0007.61
2022-05-04 00:25:00,,0817.8,4.99,0.00,26.6,25.7,00.0,35.5,28.5,22.2,-002.2,0014.83,0008.07,0007.63
2022-05-04 00:26:00,,0817.8,5.00,0.00,26.6,25.7,00.0,35.5,28.4,22.0,-002.3,0014.82,0008.12,0007.64
2022-05-04 00:27:00,,0817.7,4.98,0.00,26.6,25.7,00.0,35.5,28.5,21.8,-002.1,0014.82,0008.13,0007.65
2022-05-04 00:28:00,,0817.7,5.01,0.00,26.6,25.8,00.0,35.5,28.5,21.8,-002.0,0014.94,0008.18,0007.69
2022-05-04 00:29:00,,0817.7,4.99,0.00,26.6,25.8,00.0,35.5,28.5,21.8,-002.2,0014.86,0008.14,0007.69
2022-05-04 00:30:00,,0817.7,5.01,0.00,26.6,25.8,00.0,35.5,28.5,21.9,-002.2,0014.94,0008.10,0007.67
2022-05-04 00:31:00,,0817.8,5.01,0.00,26.6,25.8,00.0,35.5,28.5,22.0,-001.8,0015.10,0008.12,0007.68
2022-05-04 00:32:00,,0817.8,5.00,0.00,26.6,25.8,00.0,35.5,28.5,22.0,-001.7,0013.86,0008.14,0007.68
2022-05-04 00:33:00,,0817.8,4.98,0.00,26.6,25.8,00.0,35.5,28.5,22.1,-001.6,0013.77,0008.16,0007.69
2022-05-04 00:34:00,,0817.8,5.01,0.00,26.6,25.8,00.0,35.5,28.5,22.0,-001.7,0013.48,0008.18,0007.71
2022-05-04 00:35:00,,0817.8,5.00,0.00,26.6,25.8,00.0,35.5,28.5,22.0,-001.8,0013.20,0008.22,0007.74
2022-05-04 00:36:00,,0817.8,5.01,0.00,26.6,25.8,00.0,35.5,28.5,22.0,-001.7,0012.98,0008.22,0007.78
2022-05-04 00:37:00,,0817.8,5.00,0.00,26.6,25.8,00.0,35.5,28.5,21.9,-001.8,0012.48,0008.23,0007.81
2022-05-04 00:38:00,,0817.9,5.00,0.00,26.7,25.8,00.0,35.5,28.5,22.0,-001.8,0012.42,0008.28,0007.84
2022-05-04 00:39:00,,0817.9,4.99,0.00,26.7,25.8,00.0,35.5,28.5,22.1,-002.1,0012.33,0008.27,0007.85
2022-05-04 00:40:00,,0818.0,5.01,0.00,26.7,25.8,00.0,35.5,28.5,22.0,-002.2,0012.82,0008.32,0007.87
2022-05-04 00:41:00,,0818.0,5.01,0.00,26.7,25.8,00.0,35.5,28.5,21.9,-002.4,0013.22,0008.33,0007.89
2022-05-04 00:42:00,,0818.0,4.99,0.00,26.7,25.8,00.0,35.5,28.5,21.9,-002.6,0012.66,0008.31,0007.90
2022-05-04 00:43:00,,0818.0,5.01,0.00,26.7,25.8,00.0,35.5,28.6,22.0,-002.7,0012.66,0008.29,0007.89
2022-05-04 00:44:00,,0817.9,4.99,0.00,26.7,25.8,00.0,35.5,28.6,22.0,-002.8,0012.74,0008.29,0007.88
2022-05-04 00:45:00,,0817.9,5.01,0.00,26.7,25.8,00.0,35.5,28.6,22.0,-002.9,0012.72,0008.28,0007.87
2022-05-04 00:46:00,,0817.9,5.00,0.00,26.7,25.8,00.0,35.6,28.6,22.0,-002.9,0012.74,0008.28,0007.86
2022-05-04 00:47:00,,0817.9,5.00,0.00,26.7,25.8,00.0,35.6,28.5,21.9,-002.9,0012.75,0008.28,0007.84
2022-05-04 00:48:00,,0817.9,4.99,0.00,26.7,25.8,00.0,35.6,28.5,21.9,-002.6,0012.67,0008.25,0007.80
2022-05-04 00:49:00,,0817.9,4.99,0.00,26.7,25.8,00.0,35.6,28.5,21.8,-002.7,0012.64,0008.23,0007.81
2022-05-04 00:50:00,,0817.8,5.01,0.00,26.7,25.8,00.0,35.6,28.5,21.7,-002.7,0012.89,0008.21,0007.80
2022-05-04 00:51:00,,0817.9,5.00,0.00,26.7,25.8,00.0,35.6,28.6,21.7,-002.6,0012.97,0008.22,0007.79
2022-05-04 00:52:00,,0817.9,4.99,0.00,26.7,25.8,00.0,35.6,28.5,21.7,-002.4,0012.24,0008.21,0007.78
2022-05-04 00:53:00,,0818.0,5.00,0.00,26.7,25.9,00.0,35.6,28.6,21.8,-002.4,0012.22,0008.24,0007.79
2022-05-04 00:54:00,,0818.0,5.00,0.00,26.7,25.9,00.0,35.6,28.6,22.0,-002.3,0012.37,0008.27,0007.80
2022-05-04 00:55:00,,0818.0,5.00,0.00,26.7,25.9,00.0,35.6,28.6,22.2,-002.1,0013.00,0008.24,0007.81
2022-05-04 00:56:00,,0818.0,5.01,0.00,26.7,25.9,00.0,35.6,28.6,22.3,-002.1,0013.04,0008.22,0007.79
2022-05-04 00:57:00,,0818.1,4.99,0.00,26.8,25.9,00.0,35.6,28.6,22.3,-002.2,0013.05,0008.21,0007.78
2022-05-04 00:58:00,,0818.2,5.00,0.00,26.7,25.9,00.0,35.6,28.6,22.3,-002.3,0013.13,0008.17,0007.74
2022-05-04 00:59:00,,0818.3,5.00,0.00,26.7,25.9,00.0,35.6,28.6,22.4,-002.5,0013.14,0008.14,0007.72
